Location: Miles
(41.4492°N, 81.6087°W)
Time: 08:56:49
(UTC+00:00)

Transit 2A - Pass Details

Date: 14 September 2024
Orbit: 590 x 960 km, 66.7° (Epoch: 09 October)

Event Time Altitude Azimuth Distance (km) Brightness Sun altitude
Rises 00:02:36 0° 203° (SSW) 3,358 9.5 -5.4°
Reaches altitude 10° 00:04:57 10° 202° (SSW) 2,479 8.8 -5.8°
Maximum altitude 00:10:45 76° 117° (ESE) 938 6.3 -6.9°
Drops below altitude 10° 00:17:02 10° 33° (NNE) 2,675 8.6 -8.0°
Sets 00:19:39 0° 32° (NNE) 3,641 9.3 -8.5°
